TVF63YH LFPO-LIBD

Flight info

Callsign TVF63YH
Flight time 1h 54m
Altitude 37000
Route BUBLI DCT LUVAL DCT SHARA DCT DEVDI DCT RIPUS DCT RESIA DCT ALBET DCT UTAME DCT RIVAM DCT GARGA DCT ALJUB DCT EKKEF DCT PERAV
Aircraft A320/M-SDE3FGHIRWY/LB1

Departure

Time 2026-04-25 15:11
Airport Paris-Orly Airport (LFPO)

Arrival

Time 2026-04-25 17:05
Airport Bari Karol Wojtyła International Airport (LIBD)
Time Latitude Longitude Altitude Speed Heading
2026-04-25 14:22 48.72734 2.36841 285 ft 0 kts 22°
2026-04-25 15:01 48.72718 2.36831 288 ft 3 kts 22°
2026-04-25 15:02 48.72700 2.36819 285 ft 3 kts 22°
2026-04-25 15:02 48.72681 2.36807 286 ft 3 kts 22°
2026-04-25 15:02 48.72662 2.36795 288 ft 2 kts 22°
2026-04-25 15:02 48.72646 2.36787 288 ft 3 kts
2026-04-25 15:03 48.72631 2.36789 287 ft 3 kts 308°
2026-04-25 15:03 48.72627 2.36809 285 ft 3 kts 251°
2026-04-25 15:03 48.72634 2.36838 289 ft 3 kts 252°
2026-04-25 15:03 48.72634 2.36841 288 ft 0 kts 252°
2026-04-25 15:05 48.72631 2.36824 288 ft 6 kts 252°
2026-04-25 15:06 48.72578 2.36631 288 ft 10 kts 233°
2026-04-25 15:06 48.72519 2.36608 285 ft 8 kts 186°
2026-04-25 15:06 48.72484 2.36557 286 ft 6 kts 244°
2026-04-25 15:06 48.72472 2.36501 286 ft 6 kts 254°
2026-04-25 15:07 48.72455 2.36411 286 ft 9 kts 254°
2026-04-25 15:07 48.72438 2.36316 287 ft 13 kts 254°
2026-04-25 15:07 48.72412 2.36174 287 ft 15 kts 255°
2026-04-25 15:07 48.72382 2.36006 288 ft 17 kts 255°
2026-04-25 15:08 48.72349 2.35826 285 ft 18 kts 255°
2026-04-25 15:08 48.72316 2.35652 290 ft 13 kts 246°
2026-04-25 15:08 48.72245 2.35598 285 ft 11 kts 182°
2026-04-25 15:08 48.72176 2.35621 286 ft 9 kts 165°
2026-04-25 15:09 48.72112 2.35649 285 ft 10 kts 161°
2026-04-25 15:09 48.72052 2.35707 287 ft 10 kts 136°
2026-04-25 15:09 48.71970 2.35921 288 ft 17 kts 105°
2026-04-25 15:10 48.72001 2.36175 290 ft 44 kts 73°
2026-04-25 15:10 48.72147 2.36967 289 ft 110 kts 75°
2026-04-25 15:10 48.72731 2.40101 644 ft 176 kts 73°
2026-04-25 15:11 48.73058 2.41914 1307 ft 179 kts 72°
2026-04-25 15:11 48.73379 2.43755 2039 ft 183 kts 74°
2026-04-25 15:11 48.73722 2.45704 2509 ft 199 kts 73°
2026-04-25 15:12 48.74252 2.50230 3306 ft 242 kts 84°
2026-04-25 15:12 48.74329 2.52884 3829 ft 259 kts 87°
2026-04-25 15:12 48.74390 2.55661 4578 ft 266 kts 86°
2026-04-25 15:12 48.74436 2.56571 4871 ft 266 kts 84°
2026-04-25 15:13 48.74772 2.61300 6273 ft 273 kts 83°
2026-04-25 15:13 48.75228 2.67052 7827 ft 281 kts 81°
2026-04-25 15:13 48.75475 2.70004 8596 ft 285 kts 82°
2026-04-25 15:14 48.75719 2.73005 9376 ft 289 kts 82°
2026-04-25 15:14 48.75960 2.76043 10138 ft 293 kts 82°
2026-04-25 15:14 48.76205 2.79180 10542 ft 310 kts 82°
2026-04-25 15:14 48.76463 2.82545 10732 ft 334 kts 82°
2026-04-25 15:15 48.76734 2.86124 11141 ft 347 kts 82°
2026-04-25 15:15 48.77011 2.89799 11752 ft 353 kts 83°
2026-04-25 15:15 48.77289 2.93520 12401 ft 358 kts 83°
2026-04-25 15:15 48.77570 2.97284 13061 ft 362 kts 83°
2026-04-25 15:16 48.77913 3.01084 13700 ft 366 kts 81°
2026-04-25 15:16 48.78347 3.04917 14304 ft 371 kts 79°
2026-04-25 15:16 48.79344 3.12743 15473 ft 378 kts 78°
2026-04-25 15:17 48.80334 3.20580 16607 ft 386 kts 78°
2026-04-25 15:17 48.80820 3.24608 17164 ft 390 kts 78°
2026-04-25 15:17 48.81297 3.28674 17719 ft 394 kts 78°
2026-04-25 15:18 48.81774 3.32781 18271 ft 397 kts 79°
2026-04-25 15:18 48.82041 3.41215 19222 ft 406 kts 95°
2026-04-25 15:18 48.81758 3.45492 19696 ft 409 kts 95°
2026-04-25 15:19 48.81481 3.49792 20166 ft 412 kts 95°
2026-04-25 15:19 48.81388 3.51256 20321 ft 413 kts 95°
2026-04-25 15:19 48.80928 3.58514 21071 ft 418 kts 95°
2026-04-25 15:19 48.80648 3.62908 21523 ft 421 kts 95°
2026-04-25 15:20 48.80362 3.67338 21980 ft 424 kts 95°
2026-04-25 15:20 48.80072 3.71809 22416 ft 427 kts 95°
2026-04-25 15:20 48.79778 3.76300 22842 ft 429 kts 95°
2026-04-25 15:20 48.79479 3.80823 23268 ft 432 kts 95°
2026-04-25 15:21 48.79177 3.85367 23678 ft 435 kts 95°
2026-04-25 15:21 48.78872 3.89945 24037 ft 438 kts 95°
2026-04-25 15:21 48.78563 3.94543 24392 ft 440 kts 95°
2026-04-25 15:21 48.78247 3.99179 24749 ft 442 kts 96°
2026-04-25 15:22 48.77927 4.03821 25099 ft 444 kts 96°
2026-04-25 15:22 48.77590 4.08480 25440 ft 446 kts 98°
2026-04-25 15:22 48.76909 4.13064 25786 ft 448 kts 108°
2026-04-25 15:22 48.75742 4.17447 26104 ft 449 kts 118°
2026-04-25 15:23 48.74127 4.21492 26438 ft 450 kts 127°
2026-04-25 15:23 48.72305 4.25353 26760 ft 452 kts 127°
2026-04-25 15:23 48.70478 4.29237 27094 ft 454 kts 127°
2026-04-25 15:23 48.68647 4.33135 27420 ft 455 kts 127°
2026-04-25 15:24 48.66806 4.37048 27711 ft 458 kts 126°
2026-04-25 15:24 48.64949 4.40988 28007 ft 461 kts 126°
2026-04-25 15:24 48.63083 4.44939 28326 ft 463 kts 126°
2026-04-25 15:24 48.62474 4.46225 28422 ft 464 kts 126°
2026-04-25 15:25 48.59321 4.52891 28924 ft 467 kts 126°
2026-04-25 15:25 48.57455 4.56841 29210 ft 469 kts 126°
2026-04-25 15:25 48.55531 4.60905 29484 ft 470 kts 127°
2026-04-25 15:25 48.53652 4.64864 29794 ft 471 kts 127°
2026-04-25 15:26 48.51813 4.68959 30073 ft 473 kts 119°
2026-04-25 15:26 48.50490 4.73510 30313 ft 475 kts 112°
2026-04-25 15:26 48.49289 4.78167 30521 ft 478 kts 111°
2026-04-25 15:26 48.48089 4.82852 30699 ft 480 kts 111°
2026-04-25 15:27 48.46890 4.87535 30992 ft 479 kts 111°
2026-04-25 15:27 48.45687 4.92213 31305 ft 479 kts 111°
2026-04-25 15:27 48.43276 5.01544 31939 ft 477 kts 111°
2026-04-25 15:28 48.42072 5.06192 32251 ft 477 kts 111°
2026-04-25 15:28 48.40862 5.10836 32556 ft 476 kts 112°
2026-04-25 15:28 48.39653 5.15463 32870 ft 475 kts 112°
2026-04-25 15:28 48.38852 5.18529 33081 ft 475 kts 111°
2026-04-25 15:29 48.37639 5.23157 33333 ft 476 kts 111°
2026-04-25 15:29 48.36411 5.27785 33623 ft 475 kts 112°
2026-04-25 15:29 48.35173 5.32389 33920 ft 475 kts 112°
2026-04-25 15:29 48.33932 5.36974 34213 ft 475 kts 112°
2026-04-25 15:30 48.32687 5.41572 34465 ft 474 kts 112°
2026-04-25 15:30 48.31449 5.46163 34722 ft 473 kts 112°
2026-04-25 15:30 48.30214 5.50741 34977 ft 473 kts 112°
2026-04-25 15:30 48.28982 5.55308 35242 ft 472 kts 112°
2026-04-25 15:31 48.27748 5.59859 35483 ft 471 kts 112°
2026-04-25 15:31 48.26508 5.64418 35686 ft 471 kts 112°
2026-04-25 15:31 48.25266 5.68970 35894 ft 471 kts 112°
2026-04-25 15:31 48.24022 5.73516 36119 ft 471 kts 112°
2026-04-25 15:32 48.22780 5.78052 36355 ft 470 kts 112°
2026-04-25 15:32 48.21539 5.82587 36550 ft 470 kts 112°
2026-04-25 15:32 48.20299 5.87108 36760 ft 469 kts 112°
2026-04-25 15:33 48.17808 5.96151 37105 ft 469 kts 112°
2026-04-25 15:33 48.16562 6.00661 37140 ft 469 kts 112°
2026-04-25 15:33 48.14074 6.09671 37131 ft 468 kts 112°
2026-04-25 15:34 48.11574 6.18670 37127 ft 468 kts 112°
2026-04-25 15:34 48.10318 6.23173 37235 ft 469 kts 112°
2026-04-25 15:34 48.09487 6.26146 37365 ft 468 kts 112°
2026-04-25 15:35 48.06552 6.36638 37793 ft 467 kts 112°
2026-04-25 15:35 48.05294 6.41120 37978 ft 467 kts 112°
2026-04-25 15:35 48.04035 6.45586 38162 ft 467 kts 112°
2026-04-25 15:36 48.01517 6.54520 38477 ft 466 kts 112°
2026-04-25 15:36 48.00259 6.58977 38643 ft 466 kts 112°
2026-04-25 15:36 47.98999 6.63424 38781 ft 465 kts 112°
2026-04-25 15:37 47.97737 6.67871 38911 ft 465 kts 112°
2026-04-25 15:37 47.96493 6.72313 39058 ft 464 kts 111°
2026-04-25 15:37 47.94091 6.81199 39108 ft 465 kts 111°
2026-04-25 15:38 47.91698 6.90158 39107 ft 465 kts 111°
2026-04-25 15:38 47.89276 6.99090 39093 ft 465 kts 111°
2026-04-25 15:39 47.86832 7.08011 39093 ft 465 kts 111°
2026-04-25 15:39 47.84383 7.16929 39086 ft 465 kts 111°
2026-04-25 15:40 47.82325 7.24394 39091 ft 466 kts 111°
2026-04-25 15:40 47.79461 7.34745 39094 ft 466 kts 111°
2026-04-25 15:41 47.76992 7.43653 39086 ft 466 kts 111°
2026-04-25 15:41 47.74488 7.52531 39089 ft 466 kts 115°
2026-04-25 15:42 47.70997 7.60611 39095 ft 466 kts 126°
2026-04-25 15:42 47.67154 7.68344 39094 ft 466 kts 126°
2026-04-25 15:43 47.63323 7.76089 39095 ft 466 kts 126°
2026-04-25 15:43 47.59471 7.83826 39089 ft 466 kts 126°
2026-04-25 15:44 47.55610 7.91534 39098 ft 466 kts 126°
2026-04-25 15:44 47.51760 7.99212 39085 ft 466 kts 127°
2026-04-25 15:45 47.47887 8.06913 39086 ft 467 kts 127°
2026-04-25 15:45 47.44662 8.13301 39098 ft 467 kts 127°
2026-04-25 15:46 47.40120 8.22281 39087 ft 467 kts 127°
2026-04-25 15:46 47.36238 8.29956 39096 ft 467 kts 127°
2026-04-25 15:47 47.32345 8.37632 39096 ft 467 kts 127°
2026-04-25 15:47 47.28442 8.45280 39094 ft 468 kts 127°
2026-04-25 15:48 47.24536 8.52928 39090 ft 468 kts 126°
2026-04-25 15:48 47.20718 8.60622 39090 ft 468 kts 126°
2026-04-25 15:49 47.16922 8.68386 39099 ft 468 kts 126°
2026-04-25 15:49 47.13107 8.76125 39121 ft 468 kts 126°
2026-04-25 15:50 47.09265 8.83840 39125 ft 468 kts 126°
2026-04-25 15:50 47.05410 8.91532 39118 ft 468 kts 126°
2026-04-25 15:51 47.02182 8.97974 39123 ft 468 kts 126°
2026-04-25 15:51 46.97706 9.06889 39123 ft 467 kts 126°
2026-04-25 15:52 46.93850 9.14540 39109 ft 466 kts 126°
2026-04-25 15:52 46.89996 9.22175 39108 ft 466 kts 126°
2026-04-25 15:53 46.86138 9.29798 39103 ft 466 kts 126°
2026-04-25 15:53 46.82275 9.37396 39096 ft 466 kts 127°
2026-04-25 15:54 46.78410 9.44993 39091 ft 467 kts 128°
2026-04-25 15:54 46.74537 9.52593 39092 ft 467 kts 127°
2026-04-25 15:55 46.70642 9.60185 39104 ft 467 kts 128°
2026-04-25 15:55 46.66750 9.67760 39127 ft 467 kts 128°
2026-04-25 15:56 46.62853 9.75330 39144 ft 468 kts 128°
2026-04-25 15:56 46.58950 9.82921 39131 ft 468 kts 128°
2026-04-25 15:57 46.55033 9.90488 39126 ft 469 kts 128°
2026-04-25 15:57 46.51104 9.98052 39109 ft 469 kts 129°
2026-04-25 15:58 46.47042 10.05458 39113 ft 468 kts 137°
2026-04-25 15:58 46.42422 10.12084 39101 ft 467 kts 138°
2026-04-25 15:59 46.37787 10.18692 39064 ft 468 kts 138°
2026-04-25 15:59 46.33138 10.25305 39056 ft 469 kts 138°
2026-04-25 16:00 46.30048 10.29694 39049 ft 470 kts 138°
2026-04-25 16:00 46.23800 10.38547 39057 ft 470 kts 138°
2026-04-25 16:01 46.19125 10.45165 39053 ft 471 kts 138°
2026-04-25 16:01 46.14435 10.51785 39041 ft 473 kts 138°
2026-04-25 16:02 46.09756 10.58370 39036 ft 473 kts 138°
2026-04-25 16:02 46.05036 10.64988 39028 ft 473 kts 139°
2026-04-25 16:03 46.00314 10.71574 39041 ft 473 kts 139°
2026-04-25 16:03 45.95587 10.78168 39055 ft 473 kts 139°
2026-04-25 16:04 45.90882 10.84735 39052 ft 471 kts 139°
2026-04-25 16:04 45.86185 10.91257 39049 ft 469 kts 139°
2026-04-25 16:05 45.82282 10.96658 39028 ft 469 kts 139°
2026-04-25 16:06 45.74477 11.07447 39043 ft 466 kts 139°
2026-04-25 16:06 45.69814 11.13867 39040 ft 464 kts 139°
2026-04-25 16:07 45.65157 11.20249 39037 ft 463 kts 139°
2026-04-25 16:07 45.60516 11.26602 39019 ft 462 kts 139°
2026-04-25 16:08 45.55878 11.32946 39022 ft 461 kts 139°
2026-04-25 16:08 45.51248 11.39264 39020 ft 460 kts 140°
2026-04-25 16:09 45.46611 11.45555 39018 ft 460 kts 140°
2026-04-25 16:09 45.41985 11.51838 39014 ft 460 kts 139°
2026-04-25 16:10 45.37471 11.58323 39005 ft 461 kts 137°
2026-04-25 16:10 45.33067 11.64941 39012 ft 461 kts 136°
2026-04-25 16:11 45.28640 11.71539 39013 ft 461 kts 137°
2026-04-25 16:11 45.24181 11.78067 39012 ft 460 kts 137°
2026-04-25 16:12 45.19708 11.84565 39012 ft 460 kts 138°
2026-04-25 16:12 45.15231 11.91046 39012 ft 460 kts 138°
2026-04-25 16:13 45.10760 11.97528 39009 ft 460 kts 137°
2026-04-25 16:13 45.07047 12.02917 39010 ft 460 kts 137°
2026-04-25 16:14 45.02570 12.09394 39016 ft 461 kts 137°
2026-04-25 16:14 44.97356 12.16915 39024 ft 461 kts 138°
2026-04-25 16:15 44.93591 12.22317 39026 ft 461 kts 138°
2026-04-25 16:15 44.89091 12.28766 39022 ft 461 kts 137°
2026-04-25 16:16 44.84603 12.35196 39026 ft 460 kts 137°
2026-04-25 16:16 44.80110 12.41617 39030 ft 460 kts 138°
2026-04-25 16:17 44.75609 12.48020 39033 ft 460 kts 138°
2026-04-25 16:17 44.71112 12.54412 39034 ft 460 kts 138°
2026-04-25 16:18 44.66619 12.60799 39033 ft 459 kts 137°
2026-04-25 16:18 44.62147 12.67120 39035 ft 459 kts 137°
2026-04-25 16:19 44.57642 12.73457 39036 ft 458 kts 137°
2026-04-25 16:19 44.53141 12.79793 39036 ft 458 kts 137°
2026-04-25 16:20 44.46391 12.89284 39038 ft 459 kts 137°
2026-04-25 16:21 44.39624 12.98738 39045 ft 458 kts 137°
2026-04-25 16:21 44.35123 13.05023 39048 ft 458 kts 137°
2026-04-25 16:22 44.30610 13.11304 39047 ft 457 kts 137°
2026-04-25 16:22 44.26106 13.17556 39048 ft 457 kts 137°
2026-04-25 16:23 44.21597 13.23807 39043 ft 456 kts 137°
2026-04-25 16:23 44.17102 13.30023 39057 ft 455 kts 137°
2026-04-25 16:24 44.12606 13.36217 39056 ft 454 kts 137°
2026-04-25 16:24 44.08123 13.42387 39055 ft 453 kts 137°
2026-04-25 16:25 44.03630 13.48551 39050 ft 453 kts 137°
2026-04-25 16:25 43.99143 13.54697 39064 ft 453 kts 137°
2026-04-25 16:26 43.94655 13.60829 39053 ft 453 kts 137°
2026-04-25 16:26 43.90166 13.66944 39052 ft 453 kts 137°
2026-04-25 16:27 43.85675 13.73056 39056 ft 452 kts 137°
2026-04-25 16:27 43.81186 13.79155 39058 ft 452 kts 137°
2026-04-25 16:28 43.76691 13.85240 39053 ft 452 kts 137°
2026-04-25 16:28 43.72197 13.91305 39067 ft 451 kts 137°
2026-04-25 16:29 43.67708 13.97364 39066 ft 450 kts 137°
2026-04-25 16:29 43.63228 14.03392 39059 ft 450 kts 137°
2026-04-25 16:30 43.58738 14.09418 39061 ft 450 kts 137°
2026-04-25 16:30 43.54254 14.15435 39060 ft 450 kts 137°
2026-04-25 16:31 43.49761 14.21432 39063 ft 450 kts 137°
2026-04-25 16:31 43.45554 14.27799 39063 ft 450 kts 131°
2026-04-25 16:32 43.41481 14.34343 39068 ft 450 kts 132°
2026-04-25 16:32 43.37401 14.40869 39066 ft 450 kts 132°
2026-04-25 16:33 43.33321 14.47376 39058 ft 450 kts 132°
2026-04-25 16:33 43.29234 14.53874 39069 ft 449 kts 131°
2026-04-25 16:34 43.25150 14.60359 39066 ft 449 kts 132°
2026-04-25 16:34 43.21064 14.66822 39070 ft 448 kts 132°
2026-04-25 16:35 43.16975 14.73272 39073 ft 448 kts 132°
2026-04-25 16:35 43.12893 14.79716 39066 ft 448 kts 132°
2026-04-25 16:36 43.08812 14.86153 39058 ft 447 kts 132°
2026-04-25 16:36 43.04727 14.92578 39063 ft 447 kts 132°
2026-04-25 16:37 43.00639 14.98986 39065 ft 447 kts 132°
2026-04-25 16:37 42.96568 15.05347 39049 ft 448 kts 132°
2026-04-25 16:38 42.92455 15.11739 39062 ft 448 kts 132°
2026-04-25 16:38 42.88341 15.18121 39062 ft 448 kts 132°
2026-04-25 16:39 42.84230 15.24514 39052 ft 448 kts 132°
2026-04-25 16:39 42.80123 15.30899 39055 ft 448 kts 132°
2026-04-25 16:40 42.76004 15.37273 39063 ft 448 kts 132°
2026-04-25 16:40 42.71880 15.43630 39058 ft 448 kts 132°
2026-04-25 16:41 42.67758 15.49975 39070 ft 448 kts 132°
2026-04-25 16:41 42.61570 15.59476 38934 ft 448 kts 132°
2026-04-25 16:42 42.59509 15.62629 37987 ft 456 kts 132°
2026-04-25 16:42 42.57365 15.65907 37032 ft 461 kts 132°
2026-04-25 16:42 42.55259 15.69128 36191 ft 464 kts 132°
2026-04-25 16:42 42.53117 15.72398 35397 ft 465 kts 132°
2026-04-25 16:43 42.50960 15.75688 34623 ft 467 kts 132°
2026-04-25 16:43 42.48804 15.78971 33825 ft 468 kts 133°
2026-04-25 16:43 42.46623 15.82247 33039 ft 466 kts 133°
2026-04-25 16:43 42.44440 15.85487 32270 ft 466 kts 133°
2026-04-25 16:44 42.42252 15.88708 31529 ft 464 kts 133°
2026-04-25 16:44 42.40067 15.91913 30874 ft 461 kts 133°
2026-04-25 16:44 42.37895 15.95082 30253 ft 457 kts 135°
2026-04-25 16:44 42.35552 15.97952 29542 ft 453 kts 139°
2026-04-25 16:45 42.33182 16.00732 28857 ft 449 kts 140°
2026-04-25 16:45 42.30827 16.03468 28199 ft 445 kts 140°
2026-04-25 16:45 42.28481 16.06171 27555 ft 441 kts 140°
2026-04-25 16:45 42.26163 16.08838 26954 ft 437 kts 140°
2026-04-25 16:46 42.23861 16.11492 26344 ft 434 kts 139°
2026-04-25 16:46 42.21585 16.14147 25746 ft 430 kts 139°
2026-04-25 16:46 42.19340 16.16789 25158 ft 427 kts 139°
2026-04-25 16:46 42.18585 16.17680 24960 ft 426 kts 139°
2026-04-25 16:47 42.14895 16.22037 24010 ft 422 kts 139°
2026-04-25 16:47 42.12695 16.24624 23410 ft 419 kts 139°
2026-04-25 16:47 42.10499 16.27194 22772 ft 416 kts 139°
2026-04-25 16:47 42.08323 16.29736 22187 ft 413 kts 139°
2026-04-25 16:48 42.06162 16.32259 21613 ft 410 kts 139°
2026-04-25 16:48 42.04014 16.34769 21070 ft 407 kts 139°
2026-04-25 16:48 42.01880 16.37258 20524 ft 404 kts 139°
2026-04-25 16:48 41.99758 16.39719 19992 ft 402 kts 139°
2026-04-25 16:49 41.97652 16.42158 19478 ft 399 kts 139°
2026-04-25 16:49 41.95554 16.44595 18956 ft 397 kts 139°
2026-04-25 16:49 41.93476 16.47014 18491 ft 395 kts 139°
2026-04-25 16:49 41.91403 16.49418 17968 ft 393 kts 139°
2026-04-25 16:50 41.89343 16.51807 17455 ft 390 kts 139°
2026-04-25 16:50 41.87300 16.54176 16973 ft 387 kts 139°
2026-04-25 16:50 41.85273 16.56521 16494 ft 384 kts 139°
2026-04-25 16:50 41.83256 16.58851 16027 ft 381 kts 139°
2026-04-25 16:51 41.81257 16.61163 15572 ft 378 kts 139°
2026-04-25 16:51 41.79297 16.63425 15139 ft 375 kts 139°
2026-04-25 16:51 41.77324 16.65698 14702 ft 373 kts 139°
2026-04-25 16:51 41.76662 16.66462 14552 ft 372 kts 139°
2026-04-25 16:52 41.73420 16.70192 13811 ft 368 kts 139°
2026-04-25 16:52 41.71488 16.72405 13202 ft 362 kts 139°
2026-04-25 16:52 41.69592 16.74581 12464 ft 354 kts 139°
2026-04-25 16:52 41.67770 16.76667 12128 ft 335 kts 139°
2026-04-25 16:53 41.64392 16.80487 11438 ft 308 kts 139°
2026-04-25 16:53 41.62766 16.82323 10863 ft 305 kts 139°
2026-04-25 16:53 41.61149 16.84148 10317 ft 305 kts 139°
2026-04-25 16:54 41.59534 16.85968 10065 ft 303 kts 139°
2026-04-25 16:54 41.57924 16.87780 9810 ft 302 kts 139°
2026-04-25 16:54 41.56319 16.89582 9602 ft 301 kts 139°
2026-04-25 16:54 41.54716 16.91379 9363 ft 303 kts 139°
2026-04-25 16:55 41.53056 16.93140 8890 ft 304 kts 147°
2026-04-25 16:55 41.51200 16.94401 8629 ft 297 kts 158°
2026-04-25 16:55 41.49294 16.95451 8267 ft 295 kts 158°
2026-04-25 16:55 41.47399 16.96492 7951 ft 292 kts 158°
2026-04-25 16:56 41.45581 16.97492 7742 ft 276 kts 158°
2026-04-25 16:56 41.43822 16.98460 7393 ft 271 kts 158°
2026-04-25 16:56 41.42065 16.99376 7061 ft 271 kts 159°
2026-04-25 16:56 41.40306 17.00245 6718 ft 269 kts 160°
2026-04-25 16:57 41.38552 17.01094 6381 ft 268 kts 160°
2026-04-25 16:57 41.37982 17.01369 6268 ft 267 kts 160°
2026-04-25 16:57 41.35065 17.02794 5673 ft 266 kts 160°
2026-04-25 16:57 41.33350 17.03631 5317 ft 258 kts 160°
2026-04-25 16:58 41.31698 17.04434 5044 ft 245 kts 160°
2026-04-25 16:58 41.30154 17.05184 5035 ft 230 kts 160°
2026-04-25 16:58 41.28691 17.05898 5029 ft 219 kts 160°
2026-04-25 16:58 41.27250 17.06495 4934 ft 216 kts 170°
2026-04-25 16:59 41.25772 17.06591 4794 ft 208 kts 187°
2026-04-25 16:59 41.24392 17.06189 4643 ft 201 kts 202°
2026-04-25 16:59 41.23159 17.05354 4487 ft 198 kts 217°
2026-04-25 16:59 41.22132 17.04147 4270 ft 196 kts 232°
2026-04-25 17:00 41.21384 17.02667 4052 ft 192 kts 247°
2026-04-25 17:00 41.21055 17.01588 3894 ft 190 kts 252°
2026-04-25 17:00 41.20442 16.99422 3564 ft 188 kts 252°
2026-04-25 17:00 41.20134 16.98326 3403 ft 187 kts 252°
2026-04-25 17:01 41.19679 16.96718 3154 ft 186 kts 252°
2026-04-25 17:01 41.19227 16.95117 2904 ft 185 kts 252°
2026-04-25 17:01 41.18774 16.93517 2661 ft 185 kts 252°
2026-04-25 17:01 41.18326 16.91919 2415 ft 185 kts 252°
2026-04-25 17:02 41.17884 16.90346 2173 ft 177 kts 252°
2026-04-25 17:02 41.17471 16.88880 1962 ft 160 kts 252°
2026-04-25 17:02 41.17100 16.87550 1737 ft 149 kts 252°
2026-04-25 17:02 41.16863 16.86711 1592 ft 145 kts 252°
2026-04-25 17:03 41.16391 16.85052 1333 ft 143 kts 252°
2026-04-25 17:03 41.16051 16.83817 1143 ft 142 kts 253°
2026-04-25 17:03 41.15717 16.82579 929 ft 143 kts 250°
2026-04-25 17:03 41.15340 16.81358 791 ft 144 kts 250°
2026-04-25 17:04 41.15002 16.80124 584 ft 145 kts 252°
2026-04-25 17:04 41.14654 16.78877 388 ft 145 kts 249°
2026-04-25 17:04 41.14294 16.77621 191 ft 144 kts 252°
2026-04-25 17:04 41.13968 16.76468 121 ft 113 kts 249°
2026-04-25 17:05 41.13767 16.75755 139 ft 40 kts 251°
2026-04-25 17:05 41.13584 16.75112 137 ft 36 kts 250°
2026-04-25 17:05 41.13513 16.74859 138 ft 26 kts 250°
2026-04-25 17:06 41.13448 16.74738 141 ft 13 kts 196°
2026-04-25 17:06 41.13393 16.74775 146 ft 6 kts 126°
2026-04-25 17:06 41.13371 16.74824 147 ft 6 kts 120°
2026-04-25 17:06 41.13353 16.74865 147 ft 5 kts 118°
2026-04-25 17:07 41.13354 16.74967 148 ft 15 kts 70°
2026-04-25 17:07 41.13392 16.75101 147 ft 17 kts 69°
2026-04-25 17:07 41.13441 16.75266 142 ft 22 kts 69°
2026-04-25 17:07 41.13494 16.75460 143 ft 22 kts 69°
2026-04-25 17:08 41.13548 16.75645 138 ft 22 kts 70°
2026-04-25 17:08 41.13592 16.75808 138 ft 14 kts 67°
2026-04-25 17:08 41.13633 16.75941 136 ft 17 kts 73°
2026-04-25 17:08 41.13618 16.76043 136 ft 8 kts 131°
2026-04-25 17:09 41.13580 16.76086 136 ft 7 kts 140°
2026-04-25 17:09 41.13554 16.76132 136 ft 7 kts 108°
2026-04-25 17:09 41.13569 16.76223 136 ft 12 kts 70°
2026-04-25 17:09 41.13598 16.76325 136 ft 7 kts 70°
2026-04-25 17:10 41.13604 16.76352 136 ft 2 kts 82°
2026-04-25 17:10 41.13588 16.76377 136 ft 4 kts 148°
2026-04-25 17:10 41.13563 16.76390 136 ft 3 kts 161°
2026-04-25 17:10 41.13545 16.76399 136 ft 2 kts 160°
2026-04-25 17:11 41.13540 16.76402 136 ft 0 kts 158°